Weather History for Covington, KY

Change the Weather History Date:

Saturday, September 21, 2013

  Actual Average Record
Temperature  
Mean Temperature 65 °F 65 °F  
Max Temperature 73 °F 76 °F 97 °F (1940)
Min Temperature 56 °F 55 °F 35 °F (1962)
Degree Days  
Heating Degree Days 0 3  
Month to date heating degree days 10 22  
Since 1 July heating degree days 14 22  
Cooling Degree Days 0 3  
Month to date cooling degree days 136 116  
Year to date cooling degree days 1112 1084  
Growing Degree Days 16 (Base 50)    
Moisture  
Dew Point 60 °F    
Average Humidity 72    
Maximum Humidity 100    
Minimum Humidity 44    
Precipitation  
Precipitation 0.63 in 0.08 in 1.98 in (1950)
Month to date precipitation 3.56 1.81  
Year to date precipitation 36.61 31.60  
Snow  
Snow 0.00 in 0.00 in - ()
Month to date snowfall 0.0 0.0  
Since 1 July snowfall 0.0 0.0  
Since 1 September snowfall 0.0 0.0  
Snow Depth 0.00 in    
Sea Level Pressure  
Sea Level Pressure 29.79 in    
Wind  
Wind Speed 9 mph (WNW)    
Max Wind Speed 18 mph    
Max Gust Speed 24 mph    
Visibility 7 miles    
Events Rain    
T = Trace of Precipitation, MM = Missing Value Source: NWS Daily Summary

Daily Weather History Graph

Daily Weather History Graph

Search for Another Location

Airport:

Trip Planner

Search our weather history database for the weather conditions in past years. The results will help you decide how hot, cold, wet, or windy it might be!

Date:

Astronomy

Sep. 21, 2013 Rise Set
Actual Time 7:25 AM EDT 7:36 PM EDT
Civil Twilight 6:59 AM EDT 8:03 PM EDT
Nautical Twilight 6:27 AM EDT 8:34 PM EDT
Astronomical Twilight 5:55 AM EDT 9:06 PM EDT
Moon 8:48 PM EDT (9/21) 9:41 AM EDT (9/21)
Length of Visible Light 13h 04m
Length of Day
12h 11m
Waning Gibbous, 94% of the Moon is Illuminated
Sep 21
Waning Gibbous
Sep 26
Last Quarter
Oct 4
New
Oct 11
First Quarter
Oct 18
Full

Hourly Weather History & Observations

Time (EDT) Temp. Dew Point Humidity Pressure Visibility Wind Dir Wind Speed Gust Speed Precip Events Conditions
12:20 AM 68.0 °F 68.0 °F 100% 29.82 in 2.0 mi West 5.8 mph - 0.07 in Rain Heavy Rain
12:22 AM 68.0 °F 68.0 °F 100% 29.82 in 2.0 mi West 4.6 mph - 0.08 in Rain Heavy Rain
12:28 AM 68.0 °F 68.0 °F 100% 29.81 in 1.5 mi Calm Calm - 0.11 in Rain Heavy Rain
12:37 AM 68.0 °F 68.0 °F 100% 29.81 in 1.2 mi West 5.8 mph - 0.19 in Rain Heavy Rain
12:52 AM 66.9 °F 66.9 °F 100% 29.79 in 1.2 mi WNW 11.5 mph - 0.37 in Rain Heavy Rain
1:11 AM 66.2 °F 66.2 °F 100% 29.81 in 3.0 mi West 9.2 mph - 0.25 in Rain Rain
1:24 AM 66.2 °F 66.2 °F 100% 29.81 in 4.0 mi WSW 5.8 mph - 0.27 in Rain Rain
1:52 AM 66.9 °F 66.9 °F 100% 29.78 in 2.0 mi West 4.6 mph - 0.38 in Rain Heavy Rain
2:07 AM 66.2 °F 66.2 °F 100% 29.80 in 5.0 mi WSW 3.5 mph - 0.03 in Rain Light Rain
2:24 AM 66.2 °F 66.2 °F 100% 29.80 in 5.0 mi WSW 3.5 mph - 0.05 in Rain Light Rain
2:52 AM 66.9 °F 66.9 °F 100% 29.76 in 4.0 mi West 4.6 mph - 0.07 in Rain Light Rain
3:18 AM 66.2 °F 66.2 °F 100% 29.79 in 4.0 mi SW 3.5 mph - 0.03 in Rain Light Rain
3:45 AM 66.2 °F 66.2 °F 100% 29.78 in 4.0 mi West 5.8 mph - 0.07 in Rain Rain
3:52 AM 66.9 °F 66.0 °F 97% 29.75 in 4.0 mi West 6.9 mph - 0.08 in Rain Rain
4:06 AM 66.2 °F 66.2 °F 100% 29.77 in 3.0 mi WNW 6.9 mph - 0.04 in Rain Heavy Rain
4:14 AM 66.2 °F 66.2 °F 100% 29.77 in 3.0 mi NW 5.8 mph - 0.07 in Rain Rain
4:28 AM 66.2 °F 66.2 °F 100% 29.77 in 4.0 mi West 8.1 mph - 0.10 in Rain Light Rain
4:49 AM 66.2 °F 66.2 °F 100% 29.75 in 4.0 mi WNW 6.9 mph - 0.14 in Rain Rain
4:52 AM 66.9 °F 66.0 °F 97% 29.73 in 4.0 mi NW 5.8 mph - 0.14 in Rain Rain
5:24 AM 66.2 °F 66.2 °F 100% 29.75 in 7.0 mi WNW 4.6 mph - 0.03 in Rain Light Rain
5:52 AM 66.0 °F 66.0 °F 100% 29.73 in 6.0 mi Calm Calm - 0.05 in Rain Light Rain
6:52 AM 64.0 °F 64.0 °F 100% 29.72 in 6.0 mi NW 10.4 mph - 0.03 in Rain Light Rain
7:23 AM 62.6 °F 60.8 °F 94% 29.75 in 10.0 mi NNW 12.7 mph - 0.02 in Rain Light Rain
7:52 AM 62.1 °F 60.1 °F 93% 29.74 in 10.0 mi NW 13.8 mph - 0.02 in   Overcast
8:52 AM 61.0 °F 59.0 °F 93% 29.76 in 7.0 mi NW 11.5 mph - 0.00 in   Overcast
9:42 AM 60.8 °F 59.0 °F 94% 29.80 in 9.0 mi NW 9.2 mph - N/A   Mostly Cloudy
9:52 AM 61.0 °F 59.0 °F 93% 29.78 in 9.0 mi NW 9.2 mph - N/A   Mostly Cloudy
10:52 AM 61.0 °F 57.9 °F 90% 29.79 in 10.0 mi NW 10.4 mph - N/A   Mostly Cloudy
11:52 AM 63.0 °F 57.9 °F 84% 29.80 in 10.0 mi NW 13.8 mph - N/A   Mostly Cloudy
12:52 PM 66.9 °F 55.9 °F 68% 29.79 in 10.0 mi NNW 13.8 mph 20.7 mph N/A   Scattered Clouds
1:52 PM 69.1 °F 54.0 °F 58% 29.79 in 10.0 mi NNW 15.0 mph 24.2 mph N/A   Scattered Clouds
2:52 PM 71.1 °F 53.1 °F 53% 29.79 in 10.0 mi WNW 13.8 mph - N/A   Scattered Clouds
3:52 PM 72.0 °F 48.9 °F 44% 29.78 in 10.0 mi NW 11.5 mph - N/A   Scattered Clouds
4:52 PM 72.0 °F 48.9 °F 44% 29.78 in 10.0 mi NNW 12.7 mph - N/A   Scattered Clouds
5:52 PM 71.1 °F 48.9 °F 45% 29.79 in 10.0 mi NW 10.4 mph - N/A   Scattered Clouds
6:52 PM 69.1 °F 52.0 °F 54% 29.80 in 10.0 mi North 10.4 mph - N/A   Scattered Clouds
7:52 PM 64.0 °F 52.0 °F 65% 29.81 in 10.0 mi NW 6.9 mph - N/A   Partly Cloudy
8:52 PM 63.0 °F 52.0 °F 67% 29.83 in 10.0 mi NW 6.9 mph - N/A   Scattered Clouds
9:52 PM 61.0 °F 51.1 °F 70% 29.84 in 10.0 mi NW 5.8 mph - N/A   Partly Cloudy
10:52 PM 61.0 °F 51.1 °F 70% 29.86 in 10.0 mi NNW 9.2 mph - N/A   Partly Cloudy
11:52 PM 57.9 °F 50.0 °F 75% 29.88 in 10.0 mi North 10.4 mph - N/A   Clear